Location: Treviso
(45.6669°N, 12.2430°E)
Time: 23:10:53
(UTC+01:00)

Envisat - Pass Details

Date: 30 November 2022
Orbit: 763 x 765 km, 98.2° (Epoch: 05 February)

Event Time Altitude Azimuth Distance (km) Brightness Sun altitude
Rises 03:52:25 0° 20° (NNE) 3,244 6.5 -37.3°
Reaches altitude 10° 03:54:53 10° 28° (NNE) 2,313 5.8 -36.9°
Enters shadow 03:56:14 18° 35° (NE) 1,835 5.3 -36.6°
